User: anonymous   Login
Location: Oshawa
(43.9000°N, 78.8670°W)
Time: 03:31:43
(UTC-04:00)
Language:

Cosmos 839 Rocket - Orbit

View from above orbital plane
View from above orbital plane
View from above satellite
View from above satellite

Ground track
Ground track

The orbit data is extracted from the following two-line orbital elements,

1  9013U 76067B   17290.54161884 -.00000024 +00000-0 +10362-3 0  9997
2  9013 065.8630 128.9504 0711326 024.5371 003.3789 12.35328624861522
Epoch (UTC): 17 October 2017 12:59:55
Eccentricity: 0.0711326
inclination: 65.8630°
perigee height: 964 km
apogee height: 2089 km
right ascension of ascending node: 128.9504°
argument of perigee: 24.5371°
revolutions per day: 12.35328624
mean anomaly at epoch: 3.3789°
orbit number at epoch: 86152

The dashed part of the orbit path shows where the satellite is in the earth's shadow,  

DLR